| time (UTC) | temp F | wind direction | speed MPH | gust MPH | rain 1hr in | rain 24hr in | rain mn in | humidity % | barometer mb |
| 20260502152323 | 67 | 240 | 5.0 | 11.0 | 0.00 | 0.00 | 0.00 | 59 | 1013.5 |
| 20260502151823 | 67 | 195 | 5.0 | 11.0 | 0.00 | 0.00 | 0.00 | 60 | 1013.5 |
| 20260502151322 | 67 | 271 | 4.0 | 8.0 | 0.00 | 0.00 | 0.00 | 60 | 1013.6 |
| 20260502150821 | 67 | 185 | 4.0 | 9.0 | 0.00 | 0.00 | 0.00 | 60 | 1013.6 |
| 20260502150321 | 66 | 223 | 4.0 | 11.0 | 0.00 | 0.00 | 0.00 | 60 | 1013.6 |
| 20260502130326 | 65 | 250 | 6.0 | 16.0 | 0.00 | 0.00 | 0.00 | 60 | 1014.4 |
| 20260502123323 | 65 | 237 | 7.0 | 16.0 | 0.00 | 0.00 | 0.00 | 62 | 1014.7 |
| 20260502122822 | 65 | 237 | 10.0 | 16.0 | 0.00 | 0.00 | 0.00 | 62 | 1014.6 |
| 20260502122321 | 65 | 241 | 6.0 | 14.0 | 0.00 | 0.00 | 0.00 | 63 | 1014.5 |
| 20260502121821 | 65 | 234 | 9.0 | 16.0 | 0.00 | 0.00 | 0.00 | 62 | 1014.6 |
| 20260502121323 | 65 | 234 | 11.0 | 16.0 | 0.00 | 0.00 | 0.00 | 62 | 1014.6 |
| 20260502120822 | 65 | 200 | 9.0 | 15.0 | 0.00 | 0.00 | 0.00 | 62 | 1014.6 |
| 20260502120321 | 65 | 252 | 8.0 | 15.0 | 0.00 | 0.00 | 0.00 | 62 | 1014.6 |
| 20260502115822 | 65 | 257 | 8.0 | 14.0 | 0.00 | 0.00 | 0.00 | 63 | 1014.7 |
| 20260502114823 | 65 | 274 | 6.0 | 14.0 | 0.00 | 0.00 | 0.00 | 65 | 1014.6 |
| 20260502113822 | 64 | 258 | 9.0 | 16.0 | 0.00 | 0.00 | 0.00 | 65 | 1014.7 |
| 20260502112824 | 64 | 241 | 7.0 | 15.0 | 0.00 | 0.00 | 0.00 | 66 | 1014.8 |
| 20260502112321 | 64 | 257 | 8.0 | 15.0 | 0.00 | 0.00 | 0.00 | 67 | 1014.7 |
| 20260502111324 | 64 | 216 | 9.0 | 16.0 | 0.00 | 0.00 | 0.00 | 68 | 1015.0 |
| 20260502110822 | 63 | 227 | 6.0 | 17.0 | 0.00 | 0.00 | 0.00 | 69 | 1015.0 |
| 20260502110336 | 63 | 224 | 8.0 | 17.0 | 0.00 | 0.00 | 0.00 | 69 | 1014.8 |
| 20260502105821 | 63 | 188 | 10.0 | 15.0 | 0.00 | 0.00 | 0.00 | 69 | 1014.9 |
| 20260502105322 | 63 | 264 | 8.0 | 15.0 | 0.00 | 0.00 | 0.00 | 69 | 1014.8 |
| 20260502104821 | 63 | 224 | 7.0 | 15.0 | 0.00 | 0.00 | 0.00 | 70 | 1014.9 |
| 20260502104321 | 63 | 231 | 8.0 | 15.0 | 0.00 | 0.00 | 0.00 | 70 | 1014.8 |
| 20260502103822 | 62 | 240 | 8.0 | 15.0 | 0.00 | 0.00 | 0.00 | 70 | 1014.8 |
| 20260502103320 | 62 | 240 | 6.0 | 17.0 | 0.00 | 0.00 | 0.00 | 70 | 1014.9 |
| 20260502102822 | 62 | 233 | 6.0 | 17.0 | 0.00 | 0.00 | 0.00 | 72 | 1014.9 |
| 20260502102320 | 62 | 190 | 11.0 | 17.0 | 0.00 | 0.00 | 0.00 | 71 | 1014.9 |
| 20260502101319 | 62 | 227 | 7.0 | 15.0 | 0.00 | 0.00 | 0.00 | 72 | 1015.0 |
| 20260502100320 | 61 | 207 | 8.0 | 14.0 | 0.00 | 0.00 | 0.00 | 74 | 1015.1 |
| 20260502090820 | 57 | 210 | 8.0 | 18.0 | 0.00 | 0.00 | 0.00 | 80 | 1015.6 |
| 20260502090320 | 57 | 228 | 10.0 | 18.0 | 0.00 | 0.00 | 0.00 | 81 | 1015.5 |
| 20260502071320 | 52 | 234 | 8.0 | 19.0 | 0.00 | 0.00 | 0.00 | 88 | 1015.3 |
| 20260502070818 | 52 | 220 | 10.0 | 17.0 | 0.00 | 0.00 | 0.00 | 89 | 1015.3 |
| 20260502065819 | 51 | 219 | 10.0 | 16.0 | 0.00 | 0.00 | 0.00 | 89 | 1015.3 |
| 20260502064820 | 51 | 185 | 8.0 | 17.0 | 0.00 | 0.00 | 0.00 | 89 | 1015.4 |
| 20260502063819 | 51 | 238 | 9.0 | 18.0 | 0.00 | 0.00 | 0.00 | 89 | 1015.5 |
| 20260502063319 | 51 | 231 | 9.0 | 15.0 | 0.00 | 0.00 | 0.00 | 89 | 1015.4 |
| 20260502062819 | 51 | 226 | 9.0 | 14.0 | 0.00 | 0.00 | 0.00 | 90 | 1015.4 |
| 20260502062320 | 51 | 216 | 8.0 | 14.0 | 0.00 | 0.00 | 0.00 | 89 | 1015.3 |
| 20260502061821 | 50 | 228 | 8.0 | 17.0 | 0.00 | 0.00 | 0.00 | 89 | 1015.3 |
| 20260502061319 | 50 | 245 | 9.0 | 17.0 | 0.00 | 0.00 | 0.00 | 89 | 1015.5 |
| 20260502060818 | 50 | 213 | 7.0 | 14.0 | 0.00 | 0.00 | 0.00 | 89 | 1015.4 |
| 20260502060320 | 50 | 231 | 5.0 | 18.0 | 0.00 | 0.00 | 0.00 | 89 | 1015.4 |
| 20260502055819 | 50 | 233 | 9.0 | 18.0 | 0.00 | 0.00 | 0.00 | 89 | 1015.3 |
| 20260502055317 | 50 | 188 | 5.0 | 13.0 | 0.00 | 0.00 | 0.00 | 89 | 1015.3 |
| 20260502054819 | 50 | 240 | 9.0 | 13.0 | 0.00 | 0.00 | 0.00 | 90 | 1015.5 |
| 20260502054320 | 50 | 243 | 3.0 | 11.0 | 0.00 | 0.00 | 0.00 | 89 | 1015.5 |
| 20260502053320 | 50 | 233 | 3.0 | 12.0 | 0.00 | 0.00 | 0.00 | 89 | 1015.5 |
| 20260502052818 | 50 | 245 | 5.0 | 12.0 | 0.00 | 0.00 | 0.00 | 89 | 1015.4 |
| 20260502051819 | 50 | 233 | 4.0 | 11.0 | 0.00 | 0.00 | 0.00 | 88 | 1015.4 |
| 20260502051320 | 50 | 210 | 5.0 | 15.0 | 0.00 | 0.00 | 0.00 | 89 | 1015.5 |
| 20260502050820 | 50 | 213 | 7.0 | 15.0 | 0.00 | 0.00 | 0.00 | 88 | 1015.3 |
| 20260502050320 | 50 | 224 | 7.0 | 15.0 | 0.00 | 0.00 | 0.00 | 88 | 1015.4 |
| 20260502045819 | 50 | 224 | 7.0 | 15.0 | 0.00 | 0.00 | 0.00 | 88 | 1015.4 |
| 20260502044821 | 50 | 203 | 6.0 | 19.0 | 0.00 | 0.00 | 0.00 | 88 | 1015.5 |
| 20260502044321 | 50 | 202 | 8.0 | 19.0 | 0.00 | 0.00 | 0.00 | 89 | 1015.6 |
| 20260502043819 | 50 | 209 | 7.0 | 16.0 | 0.00 | 0.00 | 0.00 | 89 | 1015.5 |
| 20260502043320 | 50 | 214 | 10.0 | 16.0 | 0.00 | 0.00 | 0.00 | 89 | 1015.5 |
| 20260502042820 | 50 | 227 | 9.0 | 16.0 | 0.00 | 0.00 | 0.00 | 89 | 1015.5 |
| 20260502042318 | 50 | 240 | 10.0 | 16.0 | 0.00 | 0.00 | 0.00 | 89 | 1015.5 |
| 20260502041819 | 50 | 216 | 7.0 | 16.0 | 0.00 | 0.00 | 0.00 | 89 | 1015.5 |
| 20260502041321 | 50 | 213 | 9.0 | 16.0 | 0.00 | 0.00 | 0.00 | 89 | 1015.5 |
| 20260502040820 | 51 | 214 | 10.0 | 16.0 | 0.00 | 0.00 | 0.00 | 89 | 1015.5 |
| 20260502040321 | 51 | 226 | 8.0 | 17.0 | 0.00 | 0.00 | 0.00 | 89 | 1015.5 |
| 20260502035821 | 51 | 214 | 8.0 | 17.0 | 0.00 | 0.00 | 0.00 | 88 | 1015.5 |
| 20260502035321 | 51 | 245 | 7.0 | 16.0 | 0.00 | 0.00 | 0.00 | 88 | 1015.4 |
| 20260502034820 | 51 | 214 | 6.0 | 16.0 | 0.00 | 0.00 | 0.00 | 88 | 1015.6 |
| 20260502034320 | 51 | 224 | 9.0 | 14.0 | 0.00 | 0.00 | 0.00 | 88 | 1015.6 |
| 20260502033818 | 51 | 228 | 7.0 | 17.0 | 0.00 | 0.00 | 0.00 | 88 | 1015.6 |
| 20260502033318 | 51 | 231 | 9.0 | 17.0 | 0.00 | 0.00 | 0.00 | 88 | 1015.5 |
| 20260502032820 | 51 | 226 | 7.0 | 15.0 | 0.00 | 0.00 | 0.00 | 88 | 1015.6 |
| 20260502031819 | 52 | 204 | 9.0 | 15.0 | 0.00 | 0.00 | 0.00 | 88 | 1015.5 |
| 20260502031320 | 52 | 207 | 9.0 | 14.0 | 0.00 | 0.00 | 0.00 | 88 | 1015.5 |
| 20260502030820 | 52 | 176 | 8.0 | 14.0 | 0.00 | 0.00 | 0.00 | 88 | 1015.4 |
| 20260502030319 | 52 | 210 | 5.0 | 13.0 | 0.00 | 0.00 | 0.00 | 88 | 1015.5 |
| 20260502025821 | 52 | 214 | 5.0 | 13.0 | 0.00 | 0.00 | 0.00 | 88 | 1015.6 |
| 20260502025318 | 52 | 257 | 6.0 | 11.0 | 0.00 | 0.00 | 0.00 | 89 | 1015.7 |
| 20260502024820 | 53 | 230 | 4.0 | 11.0 | 0.00 | 0.00 | 0.00 | 88 | 1015.7 |
| 20260502024321 | 53 | 220 | 6.0 | 11.0 | 0.00 | 0.00 | 0.00 | 88 | 1015.6 |
| 20260502023820 | 53 | 276 | 4.0 | 9.0 | 0.00 | 0.00 | 0.00 | 88 | 1015.6 |
| 20260502023321 | 53 | 233 | 4.0 | 12.0 | 0.00 | 0.00 | 0.00 | 87 | 1015.7 |
| 20260502022820 | 53 | 276 | 6.0 | 12.0 | 0.00 | 0.00 | 0.00 | 87 | 1015.8 |
| 20260502022320 | 53 | 244 | 4.0 | 11.0 | 0.00 | 0.00 | 0.00 | 87 | 1015.8 |
| 20260502021818 | 53 | 245 | 5.0 | 11.0 | 0.00 | 0.00 | 0.00 | 87 | 1015.9 |
| 20260502021319 | 53 | 228 | 4.0 | 11.0 | 0.00 | 0.00 | 0.00 | 86 | 1016.0 |
| 20260502020821 | 53 | 224 | 6.0 | 11.0 | 0.00 | 0.00 | 0.00 | 86 | 1015.9 |
| 20260502015821 | 53 | 233 | 5.0 | 12.0 | 0.00 | 0.00 | 0.00 | 86 | 1016.0 |
| 20260502015321 | 53 | 204 | 6.0 | 12.0 | 0.00 | 0.00 | 0.00 | 86 | 1016.1 |
| 20260502014819 | 53 | 212 | 4.0 | 12.0 | 0.00 | 0.00 | 0.00 | 86 | 1016.1 |
| 20260502013821 | 54 | 237 | 5.0 | 11.0 | 0.00 | 0.00 | 0.00 | 83 | 1016.2 |
| 20260502013320 | 54 | 219 | 6.0 | 12.0 | 0.00 | 0.00 | 0.00 | 83 | 1016.2 |
| 20260502012320 | 54 | 262 | 5.0 | 12.0 | 0.00 | 0.00 | 0.00 | 83 | 1016.3 |
| 20260502011820 | 54 | 228 | 5.0 | 9.0 | 0.00 | 0.00 | 0.00 | 84 | 1016.4 |
| 20260502011322 | 55 | 244 | 4.0 | 8.0 | 0.00 | 0.00 | 0.00 | 83 | 1016.6 |
| 20260502010821 | 55 | 234 | 4.0 | 8.0 | 0.00 | 0.00 | 0.00 | 84 | 1016.6 |
| 20260502010319 | 55 | 261 | 3.0 | 9.0 | 0.00 | 0.00 | 0.00 | 84 | 1016.6 |
| 20260502005822 | 55 | 235 | 3.0 | 9.0 | 0.00 | 0.00 | 0.00 | 84 | 1016.7 |
| 20260502005321 | 55 | 224 | 5.0 | 9.0 | 0.00 | 0.00 | 0.00 | 85 | 1016.8 |
| 20260502004818 | 55 | 231 | 4.0 | 11.0 | 0.00 | 0.00 | 0.00 | 85 | 1016.7 |
| 20260502004321 | 55 | 262 | 5.0 | 11.0 | 0.00 | 0.00 | 0.00 | 86 | 1016.8 |
| 20260502003823 | 55 | 288 | 6.0 | 11.0 | 0.00 | 0.00 | 0.00 | 86 | 1016.8 |
| 20260502003320 | 55 | 227 | 3.0 | 7.0 | 0.00 | 0.00 | 0.00 | 86 | 1016.8 |
| 20260502002821 | 55 | 248 | 4.0 | 6.0 | 0.00 | 0.00 | 0.00 | 86 | 1016.8 |
| 20260502002321 | 55 | 210 | 1.0 | 8.0 | 0.00 | 0.00 | 0.00 | 85 | 1016.9 |
| 20260502001803 | 55 | 251 | 3.0 | 8.0 | 0.00 | 0.00 | 0.00 | 85 | 1016.9 |
| 20260502001303 | 55 | 209 | 3.0 | 8.0 | 0.00 | 0.00 | 0.00 | 85 | 1016.9 |
| 20260501235305 | 56 | 224 | 3.0 | 9.0 | 0.00 | 0.00 | 0.00 | 85 | 1017.2 |
| 20260501234801 | 56 | 251 | 5.0 | 8.0 | 0.00 | 0.00 | 0.00 | 85 | 1017.0 |
| 20260501234302 | 56 | 226 | 4.0 | 8.0 | 0.00 | 0.00 | 0.00 | 85 | 1017.0 |
| 20260501233802 | 56 | 227 | 4.0 | 8.0 | 0.00 | 0.00 | 0.00 | 85 | 1017.1 |
| 20260501233301 | 56 | 217 | 3.0 | 7.0 | 0.00 | 0.00 | 0.00 | 84 | 1017.0 |
| 20260501232802 | 56 | 247 | 3.0 | 7.0 | 0.00 | 0.00 | 0.00 | 84 | 1017.1 |
| 20260501232305 | 56 | 252 | 2.0 | 7.0 | 0.00 | 0.00 | 0.00 | 83 | 1017.2 |
| 20260501231802 | 56 | 244 | 1.0 | 7.0 | 0.00 | 0.00 | 0.00 | 83 | 1017.2 |
| 20260501231302 | 56 | 250 | 4.0 | 7.0 | 0.00 | 0.00 | 0.00 | 82 | 1017.2 |
| 20260501230803 | 56 | 244 | 2.0 | 8.0 | 0.00 | 0.00 | 0.00 | 82 | 1017.2 |
| 20260501225804 | 57 | 224 | 2.0 | 8.0 | 0.00 | 0.00 | 0.00 | 82 | 1017.2 |
| 20260501225306 | 57 | 243 | 3.0 | 9.0 | 0.00 | 0.00 | 0.00 | 82 | 1017.1 |
| 20260501224800 | 57 | 233 | 3.0 | 11.0 | 0.00 | 0.00 | 0.00 | 81 | 1017.1 |
| 20260501224303 | 57 | 238 | 6.0 | 11.0 | 0.00 | 0.00 | 0.00 | 81 | 1017.2 |
| 20260501223801 | 57 | 197 | 5.0 | 12.0 | 0.00 | 0.00 | 0.00 | 80 | 1017.1 |
| 20260501222801 | 58 | 257 | 5.0 | 11.0 | 0.00 | 0.00 | 0.00 | 79 | 1017.2 |
| 20260501221801 | 58 | 212 | 6.0 | 11.0 | 0.00 | 0.00 | 0.00 | 78 | 1017.2 |
| 20260501221302 | 58 | 226 | 4.0 | 12.0 | 0.00 | 0.00 | 0.00 | 78 | 1017.1 |
| 20260501220803 | 58 | 231 | 7.0 | 12.0 | 0.00 | 0.00 | 0.00 | 78 | 1017.1 |
| 20260501220302 | 58 | 213 | 6.0 | 11.0 | 0.00 | 0.00 | 0.00 | 78 | 1017.2 |
| 20260501215305 | 58 | 195 | 5.0 | 11.0 | 0.00 | 0.00 | 0.00 | 77 | 1017.1 |
| 20260501214802 | 58 | 235 | 4.0 | 9.0 | 0.00 | 0.00 | 0.00 | 76 | 1017.2 |
| 20260501214302 | 58 | 214 | 3.0 | 9.0 | 0.00 | 0.00 | 0.00 | 76 | 1017.1 |
| 20260501213803 | 59 | 240 | 4.0 | 8.0 | 0.00 | 0.00 | 0.00 | 75 | 1017.2 |
| 20260501213302 | 59 | 231 | 3.0 | 8.0 | 0.00 | 0.00 | 0.00 | 74 | 1017.2 |
| 20260501212802 | 59 | 234 | 5.0 | 11.0 | 0.00 | 0.00 | 0.00 | 74 | 1017.3 |
| 20260501212305 | 59 | 224 | 3.0 | 11.0 | 0.00 | 0.00 | 0.00 | 73 | 1017.2 |
| 20260501211802 | 59 | 250 | 3.0 | 8.0 | 0.00 | 0.00 | 0.00 | 73 | 1017.2 |
| 20260501211302 | 59 | 247 | 4.0 | 12.0 | 0.00 | 0.00 | 0.00 | 72 | 1017.2 |
| 20260501210802 | 59 | 237 | 3.0 | 12.0 | 0.00 | 0.00 | 0.00 | 72 | 1017.1 |
| 20260501210304 | 60 | 217 | 5.0 | 12.0 | 0.00 | 0.00 | 0.00 | 71 | 1017.2 |
| 20260501205803 | 60 | 234 | 5.0 | 12.0 | 0.00 | 0.00 | 0.00 | 70 | 1017.3 |
| 20260501205305 | 60 | 243 | 4.0 | 9.0 | 0.00 | 0.00 | 0.00 | 69 | 1017.2 |
| 20260501204801 | 60 | 257 | 5.0 | 14.0 | 0.00 | 0.00 | 0.00 | 69 | 1017.3 |
| 20260501204301 | 60 | 235 | 7.0 | 14.0 | 0.00 | 0.00 | 0.00 | 67 | 1017.3 |
| 20260501203756 | 61 | 245 | 9.0 | 14.0 | 0.00 | 0.00 | 0.00 | 67 | 1017.3 |
| 20260501203257 | 61 | 279 | 8.0 | 16.0 | 0.00 | 0.00 | 0.00 | 66 | 1017.4 |
| 20260501202754 | 62 | 210 | 5.0 | 16.0 | 0.00 | 0.00 | 0.00 | 65 | 1017.3 |
| 20260501202242 | 62 | 264 | 6.0 | 11.0 | 0.00 | 0.00 | 0.00 | 65 | 1017.3 |
| 20260501201240 | 63 | 237 | 6.0 | 9.0 | 0.00 | 0.00 | 0.00 | 65 | 1017.3 |
| 20260501200735 | 63 | 269 | 5.0 | 11.0 | 0.00 | 0.00 | 0.00 | 64 | 1017.2 |
| 20260501200232 | 63 | 261 | 5.0 | 11.0 | 0.00 | 0.00 | 0.00 | 65 | 1017.3 |
| 20260501195731 | 64 | 269 | 5.0 | 9.0 | 0.00 | 0.00 | 0.00 | 65 | 1017.2 |
| 20260501195232 | 64 | 258 | 3.0 | 9.0 | 0.00 | 0.00 | 0.00 | 64 | 1017.2 |
| 20260501194730 | 64 | 254 | 4.0 | 9.0 | 0.00 | 0.00 | 0.00 | 64 | 1017.1 |
| 20260501193220 | 65 | 257 | 6.0 | 11.0 | 0.00 | 0.00 | 0.00 | 63 | 1017.0 |
| 20260501192721 | 66 | 257 | 5.0 | 8.0 | 0.00 | 0.00 | 0.00 | 63 | 1017.0 |
| 20260501191721 | 67 | 224 | 4.0 | 11.0 | 0.00 | 0.00 | 0.00 | 62 | 1017.0 |
| 20260501190721 | 67 | 275 | 4.0 | 12.0 | 0.00 | 0.00 | 0.00 | 61 | 1016.9 |
| 20260501190220 | 68 | 259 | 6.0 | 12.0 | 0.00 | 0.00 | 0.00 | 60 | 1016.9 |
| 20260501185719 | 68 | 227 | 4.0 | 9.0 | 0.00 | 0.00 | 0.00 | 60 | 1016.9 |
| 20260501184720 | 70 | 286 | 6.0 | 12.0 | 0.00 | 0.00 | 0.00 | 58 | 1016.7 |
| 20260501183722 | 70 | 196 | 4.0 | 12.0 | 0.00 | 0.00 | 0.00 | 56 | 1016.4 |
| 20260501183220 | 70 | 200 | 5.0 | 11.0 | 0.00 | 0.00 | 0.00 | 57 | 1016.3 |
| 20260501182721 | 71 | 189 | 5.0 | 12.0 | 0.00 | 0.00 | 0.00 | 54 | 1016.3 |
| 20260501182220 | 71 | 209 | 4.0 | 12.0 | 0.00 | 0.00 | 0.00 | 54 | 1016.4 |
| 20260501181722 | 71 | 204 | 3.0 | 7.0 | 0.00 | 0.00 | 0.00 | 54 | 1016.3 |
| 20260501181219 | 71 | 188 | 3.0 | 7.0 | 0.00 | 0.00 | 0.00 | 54 | 1016.2 |
| 20260501175720 | 72 | 188 | 2.0 | 6.0 | 0.00 | 0.00 | 0.00 | 51 | 1016.4 |
| 20260501175222 | 73 | 196 | 3.0 | 8.0 | 0.00 | 0.00 | 0.00 | 51 | 1016.4 |
| 20260501174721 | 73 | 188 | 4.0 | 8.0 | 0.00 | 0.00 | 0.00 | 51 | 1016.4 |
| 20260501174220 | 73 | 196 | 4.0 | 11.0 | 0.00 | 0.00 | 0.00 | 50 | 1016.3 |
| 20260501173721 | 73 | 206 | 5.0 | 12.0 | 0.00 | 0.00 | 0.00 | 49 | 1016.3 |
| 20260501173220 | 74 | 192 | 5.0 | 12.0 | 0.00 | 0.00 | 0.00 | 49 | 1016.3 |
| 20260501172720 | 74 | 206 | 6.0 | 11.0 | 0.00 | 0.00 | 0.00 | 49 | 1016.4 |
| 20260501172220 | 74 | 203 | 5.0 | 11.0 | 0.00 | 0.00 | 0.00 | 48 | 1016.4 |
| 20260501171722 | 75 | 223 | 3.0 | 9.0 | 0.00 | 0.00 | 0.00 | 47 | 1016.4 |
| 20260501171220 | 75 | 230 | 5.0 | 11.0 | 0.00 | 0.00 | 0.00 | 48 | 1016.4 |
| 20260501170720 | 75 | 278 | 3.0 | 12.0 | 0.00 | 0.00 | 0.00 | 47 | 1016.4 |
| 20260501170221 | 75 | 203 | 4.0 | 12.0 | 0.00 | 0.00 | 0.00 | 46 | 1016.4 |
| 20260501165720 | 75 | 230 | 7.0 | 13.0 | 0.00 | 0.00 | 0.00 | 46 | 1016.6 |
| 20260501165220 | 75 | 220 | 3.0 | 15.0 | 0.00 | 0.00 | 0.00 | 46 | 1016.6 |
| 20260501164720 | 75 | 219 | 7.0 | 15.0 | 0.00 | 0.00 | 0.00 | 45 | 1016.6 |
| 20260501163719 | 76 | 228 | 7.0 | 12.0 | 0.00 | 0.00 | 0.00 | 45 | 1016.6 |
| 20260501163221 | 76 | 192 | 6.0 | 16.0 | 0.00 | 0.00 | 0.00 | 45 | 1016.6 |
| 20260501162722 | 76 | 176 | 7.0 | 16.0 | 0.00 | 0.00 | 0.00 | 45 | 1016.4 |
| 20260501162220 | 76 | 161 | 7.0 | 16.0 | 0.00 | 0.00 | 0.00 | 44 | 1016.4 |
| 20260501161720 | 76 | 159 | 9.0 | 16.0 | 0.00 | 0.00 | 0.00 | 44 | 1016.6 |
| 20260501161220 | 76 | 138 | 4.0 | 13.0 | 0.00 | 0.00 | 0.00 | 43 | 1016.6 |
| 20260501160721 | 76 | 196 | 6.0 | 14.0 | 0.00 | 0.00 | 0.00 | 43 | 1016.7 |
| 20260501160220 | 76 | 200 | 7.0 | 15.0 | 0.00 | 0.00 | 0.00 | 43 | 1016.8 |
| 20260501155720 | 76 | 196 | 8.0 | 15.0 | 0.00 | 0.00 | 0.00 | 43 | 1016.8 |